Flag for Switzerland Weather past 2 weeks in Illnau-Effretikon, Zurich, Switzerland

Now
33 °F

Chilly.


Feels Like: 29 °F
Forecast: 23 / 34 °F
Wind: 3 mph from Northeast

Location: Zurich Town / Ville.

Current Time: Jan 25, 2015 at 3:57:44 PM

Latest Report: Jan 25, 2015 at 3:00 PM


Visibility: N/A

Pressure: 30.44 "Hg

Humidity: 81%

Dew point: 27 °F

Location of Illnau-EffretikonLocation

Historic Weather in Illnau-Effretikon — Graph

°F

Illnau-Effretikon temperature yesterday

Maximum temperature yesterday: 35 °F (at 2:00 PM)
Minimum temperature yesterday: 29 °F (at 11:00 PM)
Average temperature yesterday: 32 °F

Past Weeks' High & Low Weather Summary

 TemperatureHumidityPressure
High60 °F (Jan 10, 2:00 PM)100% (Jan 17, 8:00 AM)30.53 "Hg (Jan 17, 8:00 AM)
Low29 °F (Jan 25, 2:00 AM)23% (Jan 13, 1:00 PM)29.70 "Hg (Jan 16, 4:00 PM)
Average36 °F82%30.07 "Hg
* Reported Jan 10 2:00 PM — Jan 25 2:00 PM, Illnau-Effretikon, Weather by CustomWeather, © 2014

Note: Actual official high and low records may vary slightly from our data, if they occured in-between our weather recording intervals... More about our weather records

Advertising

Illnau-Effretikon weather history for previous 24 hours

 ConditionsComfort  
Time TempWeatherWind HumidityBarometerVisibility
2:00 PM
Jan 25
33 °FChilly.1 mph81%30.44 "HgN/A
1:00 PM32 °FChilly.5 mph78%30.46 "HgN/A
12:00 PM32 °FChilly.3 mph82%30.47 "HgN/A
11:00 AM32 °FChilly.1 mph85%30.47 "HgN/A
10:00 AM31 °FChilly.1 mph85%30.46 "HgN/A
9:00 AM29 °FChilly.2 mph88%30.46 "HgN/A
8:00 AM30 °FChilly.1 mph94%30.43 "HgN/A
7:00 AM30 °FIce fog.2 mph96%30.41 "HgN/A
6:00 AM30 °FChilly.2 mph97%30.39 "HgN/A
5:00 AM29 °FChilly.2 mph97%30.38 "HgN/A
3:00 AM29 °FChilly.3 mph96%30.36 "HgN/A
2:00 AM29 °FChilly.3 mph98%30.35 "HgN/A
1:00 AM29 °FChilly.3 mph94%30.34 "HgN/A
12:00 AM29 °FChilly.3 mph96%30.33 "HgN/A
11:00 PM
Jan 24
29 °FChilly.6 mph94%30.32 "HgN/A
9:00 PM29 °FChilly.7 mph90%30.29 "HgN/A
8:00 PM30 °FChilly.7 mph90%30.27 "HgN/A
7:00 PM30 °FChilly.5 mph90%30.24 "HgN/A
6:00 PM32 °FChilly.5 mph80%30.21 "HgN/A
5:00 PM33 °FChilly.5 mph78%30.18 "HgN/A
4:00 PM35 °FChilly.6 mph74%30.16 "HgN/A
3:00 PM35 °FChilly.5 mph74%30.14 "HgN/A
Weather by CustomWeather, © 2014

See weather overviewHow to use our weather pages